Location: Street
(51.1247°N, 2.7429°W)
Time: 05:20:14
(UTC+01:00)

CAS-6 - Pass Details

Date: 02 April 2023
Orbit: 610 x 632 km, 97.9° (Epoch: 29 May)

Event Time Altitude Azimuth Distance (km) Brightness Sun altitude
Exits shadow 00:14:41 21° 304° (WNW) 1,396 ? -32.7°
Drops below altitude 10° 00:16:43 10° 326° (NW) 2,008 ? -32.8°
Sets 00:19:12 0° 338° (NNW) 2,925 ? -32.9°
